Location: Hilton Head Island
(32.2163°N, 80.7526°W)
Time: 14:12:09
(UTC-05:00)

Vanguard 3 - All Passes

Search period start: 18 February 2026 00:00
Search period end: 28 February 2026 00:00
Orbit: 507 x 3205 km, 33.3° (Epoch: 18 February)

Date Brightness Start Highest point End Pass type
(mag) Time Alt. Az. Time Alt. Az. Time Alt. Az.
18 Feb - 12:33:53 10° S 12:44:49 21° SSE 12:53:02 10° ESE daylight
18 Feb - 14:45:12 10° SW 14:58:35 48° SSE 15:06:23 10° E daylight
18 Feb - 17:00:35 10° WSW 17:11:02 86° S 17:16:48 10° E daylight
18 Feb - 19:15:54 10° W 19:22:34 83° N 19:26:48 10° E visible
18 Feb - 21:29:12 10° W 21:33:06 33° SSW 21:36:26 10° SE visible
19 Feb - 11:15:30 10° SSE 11:20:59 12° SE 11:25:55 10° SE daylight
19 Feb - 13:21:27 10° SSW 13:35:25 35° SSE 13:44:32 10° E daylight
19 Feb - 15:35:36 10° WSW 15:48:44 68° SSE 15:55:57 10° E daylight
19 Feb - 17:51:45 10° W 18:00:53 81° N 18:06:03 10° E daylight
19 Feb - 20:06:23 10° W 20:12:06 69° SSW 20:16:00 10° ESE visible
19 Feb - 22:20:24 10° WSW 22:22:08 13° SW 22:23:49 10° S night (unlit)
20 Feb - 11:59:09 10° SSW 12:11:45 24° SSE 12:21:17 10° E daylight
20 Feb - 14:10:50 10° SW 14:25:50 52° SSE 14:34:42 10° E daylight
20 Feb - 16:26:44 10° WSW 16:38:46 87° S 16:45:18 10° E daylight
20 Feb - 18:42:47 10° W 18:50:40 85° N 18:55:20 10° E visible
20 Feb - 20:56:49 10° W 21:01:18 33° SSW 21:04:45 10° SE visible
21 Feb - 10:40:06 10° SSE 10:47:46 14° SE 10:54:37 10° ESE daylight
21 Feb - 12:46:56 10° SSW 13:02:22 38° SSE 13:12:41 10° E daylight
21 Feb - 15:01:22 10° WSW 15:16:07 71° SSE 15:24:19 10° E daylight
21 Feb - 17:18:08 10° W 17:28:45 82° N 17:34:35 10° E daylight
21 Feb - 19:33:32 10° W 19:40:15 70° SSW 19:44:29 10° ESE visible
21 Feb - 21:48:16 10° WSW 21:50:13 13° SW 21:52:01 10° S visible
22 Feb - 11:24:36 10° SSW 11:38:28 26° SE 11:49:17 10° E daylight
22 Feb - 13:36:24 10° SW 13:52:52 55° SSE 14:02:54 10° E daylight
22 Feb - 15:52:40 10° WSW 16:06:19 88° SSE 16:13:43 10° E daylight
22 Feb - 18:09:24 10° W 18:18:39 86° N 18:23:52 10° E daylight
22 Feb - 20:24:11 10° W 20:29:27 35° SSW 20:33:10 10° SE visible
23 Feb - 10:05:18 10° S 10:14:25 15° SE 10:22:38 10° ESE daylight
23 Feb - 12:12:29 10° SSW 12:29:05 41° SSE 12:40:40 10° E daylight
23 Feb - 14:27:02 10° WSW 14:43:18 74° SSE 14:52:34 10° E daylight
23 Feb - 16:44:16 10° W 16:56:28 83° N 17:03:03 10° E daylight
23 Feb - 19:00:22 10° W 19:08:18 70° SSW 19:13:00 10° ESE visible
23 Feb - 21:15:45 10° WSW 21:18:15 14° SW 21:20:26 10° S visible
24 Feb - 10:50:13 10° SSW 11:05:00 28° SE 11:17:01 10° E daylight
24 Feb - 13:01:59 10° SW 13:19:41 58° SSE 13:30:55 10° E daylight
24 Feb - 15:18:26 10° WSW 15:33:40 89° S 15:42:02 10° E daylight
24 Feb - 17:35:45 10° W 17:46:29 88° N 17:52:22 10° E daylight
24 Feb - 19:51:15 10° W 19:57:31 38° SSW 20:01:38 10° SE visible
25 Feb - 09:30:55 10° S 09:40:54 16° SE 09:50:11 10° ESE daylight
25 Feb - 11:38:08 10° SSW 11:55:36 43° SSE 12:08:26 10° E daylight
25 Feb - 13:52:38 10° WSW 14:10:14 76° SSE 14:20:40 10° ENE daylight
25 Feb - 16:10:10 10° W 16:23:59 84° N 16:31:27 10° E daylight
25 Feb - 18:26:56 10° WNW 18:36:14 71° SSW 18:41:30 10° ESE visible
25 Feb - 20:42:54 10° WSW 20:46:15 16° SW 20:48:58 10° S visible
26 Feb - 10:16:03 10° SSW 10:31:23 30° SE 10:44:28 10° E daylight
26 Feb - 12:27:38 10° SW 12:46:14 61° SSE 12:58:46 10° E daylight
26 Feb - 14:44:05 10° WSW 15:00:47 90° S 15:10:15 10° E daylight
26 Feb - 17:01:50 10° W 17:14:09 88° N 17:20:49 10° E daylight
26 Feb - 19:18:01 10° W 19:25:29 40° SSW 19:30:07 10° SE visible
27 Feb - 08:56:53 10° S 09:07:18 17° SE 09:17:21 10° ESE daylight
27 Feb - 11:04:00 10° SSW 11:21:54 45° SSE 11:35:59 10° E daylight
27 Feb - 13:18:16 10° WSW 13:36:57 78° SSE 13:48:38 10° ENE daylight
27 Feb - 15:35:55 10° W 15:51:18 84° N 15:59:46 10° E daylight
27 Feb - 17:53:14 10° WNW 18:04:01 72° SSW 18:09:58 10° ESE daylight
27 Feb - 20:09:46 10° W 20:14:11 18° SW 20:17:32 10° S visible
